Time,TemperatureF,DewpointF,PressureIn,WindDirection,WindDirectionDegrees,WindSpeedMPH,WindSpeedGustMPH,Humidity,HourlyPrecipIn,Conditions,Clouds,dailyrainin,SoftwareType,DateUTC
2013-07-19 00:01:00,75.6,72.0,29.20,SE,135,2.0,6.0,91,0.00,,,0.00,Rainwise IP-100,2013-07-19 04:01:00,
2013-07-19 00:06:00,75.5,72.0,29.20,SSW,202,1.0,3.0,90,0.00,,,0.00,Rainwise IP-100,2013-07-19 04:06:00,
2013-07-19 00:11:00,75.6,72.0,29.20,SSW,202,4.0,4.0,90,0.00,,,0.00,Rainwise IP-100,2013-07-19 04:11:00,
2013-07-19 00:16:00,75.5,72.0,29.20,SSE,157,4.0,6.0,89,0.00,,,0.00,Rainwise IP-100,2013-07-19 04:16:00,
2013-07-19 00:21:00,75.6,72.0,29.20,SSE,157,2.0,5.0,89,0.00,,,0.00,Rainwise IP-100,2013-07-19 04:21:00,
2013-07-19 00:26:00,75.6,72.0,29.20,South,180,2.0,5.0,89,0.00,,,0.00,Rainwise IP-100,2013-07-19 04:26:00,
2013-07-19 00:31:00,75.7,71.0,29.20,SSW,202,1.0,6.0,88,0.00,,,0.00,Rainwise IP-100,2013-07-19 04:31:00,
2013-07-19 00:36:00,75.9,71.0,29.20,SSE,157,1.0,6.0,87,0.00,,,0.00,Rainwise IP-100,2013-07-19 04:36:00,
2013-07-19 00:41:00,75.9,71.0,29.20,SSW,202,4.0,5.0,87,0.00,,,0.00,Rainwise IP-100,2013-07-19 04:41:00,
2013-07-19 00:46:00,75.9,71.0,29.20,SE,135,2.0,4.0,87,0.00,,,0.00,Rainwise IP-100,2013-07-19 04:46:00,
2013-07-19 00:51:00,75.8,71.0,29.20,SSW,202,2.0,4.0,87,0.00,,,0.00,Rainwise IP-100,2013-07-19 04:51:00,
2013-07-19 00:56:00,75.7,71.0,29.20,SSW,202,0.0,4.0,88,0.00,,,0.00,Rainwise IP-100,2013-07-19 04:56:00,
2013-07-19 01:01:00,75.5,71.0,29.20,SSE,157,4.0,7.0,88,0.00,,,0.00,Rainwise IP-100,2013-07-19 05:01:00,
2013-07-19 01:06:00,75.6,71.0,29.20,South,180,2.0,8.0,88,0.00,,,0.00,Rainwise IP-100,2013-07-19 05:06:00,
2013-07-19 01:11:00,75.5,72.0,29.21,South,180,2.0,7.0,89,0.00,,,0.00,Rainwise IP-100,2013-07-19 05:11:00,
2013-07-19 01:16:00,75.4,72.0,29.20,South,180,3.0,7.0,89,0.00,,,0.00,Rainwise IP-100,2013-07-19 05:16:00,
2013-07-19 01:21:00,75.3,71.0,29.20,South,180,1.0,6.0,89,0.00,,,0.00,Rainwise IP-100,2013-07-19 05:21:00,
2013-07-19 01:26:00,75.2,71.0,29.20,SSW,202,4.0,7.0,89,0.00,,,0.00,Rainwise IP-100,2013-07-19 05:26:00,
2013-07-19 01:31:00,75.2,71.0,29.20,South,180,4.0,6.0,89,0.00,,,0.00,Rainwise IP-100,2013-07-19 05:31:00,
2013-07-19 01:36:00,75.1,71.0,29.19,SSW,202,3.0,7.0,89,0.00,,,0.00,Rainwise IP-100,2013-07-19 05:36:00,
2013-07-19 01:41:00,75.0,71.0,29.20,SSE,157,2.0,6.0,89,0.00,,,0.00,Rainwise IP-100,2013-07-19 05:41:00,
2013-07-19 01:46:00,74.9,72.0,29.20,SE,135,4.0,6.0,90,0.00,,,0.00,Rainwise IP-100,2013-07-19 05:46:00,
2013-07-19 01:51:00,74.9,72.0,29.19,SSW,202,2.0,8.0,90,0.00,,,0.00,Rainwise IP-100,2013-07-19 05:51:00,
2013-07-19 01:56:00,74.8,71.0,29.19,South,180,2.0,4.0,90,0.00,,,0.00,Rainwise IP-100,2013-07-19 05:56:00,
2013-07-19 02:01:00,74.7,71.0,29.19,SSE,157,2.0,4.0,90,0.00,,,0.00,Rainwise IP-100,2013-07-19 06:01:00,
2013-07-19 02:06:00,74.8,71.0,29.19,SSE,157,1.0,7.0,90,0.00,,,0.00,Rainwise IP-100,2013-07-19 06:06:00,
2013-07-19 02:11:00,74.7,71.0,29.19,SE,135,1.0,7.0,90,0.00,,,0.00,Rainwise IP-100,2013-07-19 06:11:00,
2013-07-19 02:16:00,74.6,71.0,29.19,South,180,2.0,5.0,90,0.00,,,0.00,Rainwise IP-100,2013-07-19 06:16:00,
2013-07-19 02:21:00,74.7,71.0,29.19,South,180,4.0,7.0,90,0.00,,,0.00,Rainwise IP-100,2013-07-19 06:21:00,
2013-07-19 02:26:00,74.6,71.0,29.18,SSE,157,4.0,6.0,90,0.00,,,0.00,Rainwise IP-100,2013-07-19 06:26:00,
2013-07-19 02:31:00,74.7,71.0,29.18,South,180,4.0,5.0,90,0.00,,,0.00,Rainwise IP-100,2013-07-19 06:31:00,
2013-07-19 02:36:00,74.6,71.0,29.18,SSW,202,4.0,7.0,90,0.00,,,0.00,Rainwise IP-100,2013-07-19 06:36:00,
2013-07-19 02:41:00,74.6,71.0,29.18,SSW,202,6.0,7.0,89,0.00,,,0.00,Rainwise IP-100,2013-07-19 06:41:00,
2013-07-19 02:46:00,74.7,71.0,29.18,SSE,157,2.0,7.0,89,0.00,,,0.00,Rainwise IP-100,2013-07-19 06:46:00,
2013-07-19 02:51:00,74.7,71.0,29.18,South,180,2.0,9.0,88,0.00,,,0.00,Rainwise IP-100,2013-07-19 06:51:00,
2013-07-19 02:56:00,74.8,71.0,29.17,South,180,1.0,9.0,88,0.00,,,0.00,Rainwise IP-100,2013-07-19 06:56:00,
2013-07-19 03:01:00,74.9,71.0,29.17,South,180,5.0,7.0,87,0.00,,,0.00,Rainwise IP-100,2013-07-19 07:01:00,
2013-07-19 03:06:00,74.9,71.0,29.17,SSE,157,2.0,7.0,87,0.00,,,0.00,Rainwise IP-100,2013-07-19 07:06:00,
2013-07-19 03:11:00,74.9,71.0,29.17,South,180,2.0,6.0,87,0.00,,,0.00,Rainwise IP-100,2013-07-19 07:11:00,
2013-07-19 03:16:00,74.9,71.0,29.17,SE,135,4.0,7.0,87,0.00,,,0.00,Rainwise IP-100,2013-07-19 07:16:00,
2013-07-19 03:21:00,74.9,71.0,29.17,SSE,157,2.0,5.0,87,0.00,,,0.00,Rainwise IP-100,2013-07-19 07:21:00,
2013-07-19 03:26:00,74.9,71.0,29.17,SSE,157,2.0,6.0,86,0.00,,,0.00,Rainwise IP-100,2013-07-19 07:26:00,
2013-07-19 03:31:00,74.9,71.0,29.17,SE,135,3.0,7.0,86,0.00,,,0.00,Rainwise IP-100,2013-07-19 07:31:00,
2013-07-19 03:36:00,75.0,71.0,29.16,SSE,157,4.0,7.0,86,0.00,,,0.00,Rainwise IP-100,2013-07-19 07:36:00,
2013-07-19 03:41:00,75.1,70.0,29.16,SSE,157,3.0,7.0,85,0.00,,,0.00,Rainwise IP-100,2013-07-19 07:41:00,
2013-07-19 03:46:00,75.3,70.0,29.16,SSE,157,4.0,7.0,84,0.00,,,0.00,Rainwise IP-100,2013-07-19 07:46:00,
2013-07-19 03:51:00,75.3,70.0,29.16,SSW,202,3.0,8.0,84,0.00,,,0.00,Rainwise IP-100,2013-07-19 07:51:00,
2013-07-19 03:56:00,75.5,70.0,29.16,SSE,157,2.0,7.0,84,0.00,,,0.00,Rainwise IP-100,2013-07-19 07:56:00,
2013-07-19 04:01:00,75.4,70.0,29.16,South,180,1.0,6.0,84,0.00,,,0.00,Rainwise IP-100,2013-07-19 08:01:00,
2013-07-19 04:06:00,75.4,70.0,29.16,SE,135,2.0,9.0,84,0.00,,,0.00,Rainwise IP-100,2013-07-19 08:06:00,
2013-07-19 04:11:00,75.2,70.0,29.16,SE,135,1.0,6.0,84,0.00,,,0.00,Rainwise IP-100,2013-07-19 08:11:00,
2013-07-19 04:16:00,75.2,70.0,29.16,SSE,157,2.0,5.0,84,0.00,,,0.00,Rainwise IP-100,2013-07-19 08:16:00,
2013-07-19 04:21:00,75.2,70.0,29.16,SSE,157,3.0,9.0,84,0.00,,,0.00,Rainwise IP-100,2013-07-19 08:21:00,
2013-07-19 04:26:00,75.1,70.0,29.15,SSE,157,2.0,6.0,84,0.00,,,0.00,Rainwise IP-100,2013-07-19 08:26:00,
2013-07-19 04:31:00,75.0,70.0,29.15,South,180,3.0,5.0,84,0.00,,,0.00,Rainwise IP-100,2013-07-19 08:31:00,
2013-07-19 04:36:00,74.9,70.0,29.15,SE,135,4.0,7.0,85,0.00,,,0.00,Rainwise IP-100,2013-07-19 08:36:00,
2013-07-19 04:41:00,74.8,70.0,29.15,SE,135,3.0,6.0,85,0.00,,,0.00,Rainwise IP-100,2013-07-19 08:41:00,
2013-07-19 04:46:00,74.7,70.0,29.15,SSE,157,2.0,6.0,85,0.00,,,0.00,Rainwise IP-100,2013-07-19 08:46:00,
2013-07-19 04:51:00,74.6,70.0,29.15,South,180,4.0,7.0,85,0.00,,,0.00,Rainwise IP-100,2013-07-19 08:51:00,
2013-07-19 04:56:00,74.5,70.0,29.15,SE,135,6.0,6.0,86,0.00,,,0.00,Rainwise IP-100,2013-07-19 08:56:00,
2013-07-19 05:01:00,74.5,70.0,29.15,SSE,157,2.0,7.0,86,0.00,,,0.00,Rainwise IP-100,2013-07-19 09:01:00,
2013-07-19 05:06:00,74.4,70.0,29.15,SSE,157,3.0,8.0,86,0.00,,,0.00,Rainwise IP-100,2013-07-19 09:06:00,
2013-07-19 05:11:00,74.3,70.0,29.15,SSE,157,5.0,6.0,86,0.00,,,0.00,Rainwise IP-100,2013-07-19 09:11:00,
2013-07-19 05:16:00,74.3,70.0,29.15,SE,135,4.0,8.0,86,0.00,,,0.00,Rainwise IP-100,2013-07-19 09:16:00,
2013-07-19 05:21:00,74.2,70.0,29.14,South,180,6.0,7.0,86,0.00,,,0.00,Rainwise IP-100,2013-07-19 09:21:00,
2013-07-19 05:26:00,74.2,70.0,29.14,South,180,4.0,9.0,86,0.00,,,0.00,Rainwise IP-100,2013-07-19 09:26:00,
2013-07-19 05:31:00,74.2,70.0,29.14,SSE,157,8.0,8.0,86,0.00,,,0.00,Rainwise IP-100,2013-07-19 09:31:00,
2013-07-19 05:36:00,74.4,69.0,29.14,SE,135,8.0,9.0,85,0.00,,,0.00,Rainwise IP-100,2013-07-19 09:36:00,
2013-07-19 05:41:00,74.4,69.0,29.14,South,180,5.0,5.0,85,0.00,,,0.00,Rainwise IP-100,2013-07-19 09:41:00,
2013-07-19 05:46:00,74.6,69.0,29.14,South,180,6.0,0.0,84,0.00,,,0.00,Rainwise IP-100,2013-07-19 09:46:00,
2013-07-19 05:51:00,74.6,69.0,29.14,South,180,7.0,0.0,84,0.00,,,0.00,Rainwise IP-100,2013-07-19 09:51:00,
2013-07-19 05:56:00,74.7,69.0,29.14,SSE,157,4.0,8.0,84,0.00,,,0.00,Rainwise IP-100,2013-07-19 09:56:00,
2013-07-19 06:01:00,74.7,69.0,29.14,SSE,157,4.0,8.0,84,0.00,,,0.00,Rainwise IP-100,2013-07-19 10:01:00,
2013-07-19 06:06:00,74.7,69.0,29.14,South,180,6.0,6.0,84,0.00,,,0.00,Rainwise IP-100,2013-07-19 10:06:00,
2013-07-19 06:11:00,74.7,69.0,29.14,SSW,202,6.0,9.0,84,0.00,,,0.00,Rainwise IP-100,2013-07-19 10:11:00,
2013-07-19 06:16:00,74.8,69.0,29.14,SW,225,6.0,6.0,84,0.00,,,0.00,Rainwise IP-100,2013-07-19 10:16:00,
2013-07-19 06:21:00,74.9,70.0,29.14,South,180,4.0,4.0,84,0.00,,,0.00,Rainwise IP-100,2013-07-19 10:21:00,
2013-07-19 06:26:00,74.9,70.0,29.14,SSE,157,4.0,4.0,84,0.00,,,0.00,Rainwise IP-100,2013-07-19 10:26:00,
2013-07-19 06:31:00,74.9,70.0,29.14,South,180,4.0,4.0,84,0.00,,,0.00,Rainwise IP-100,2013-07-19 10:31:00,
2013-07-19 06:36:00,75.0,70.0,29.14,SE,135,2.0,6.0,84,0.00,,,0.00,Rainwise IP-100,2013-07-19 10:36:00,
2013-07-19 06:41:00,74.9,70.0,29.14,SSE,157,2.0,5.0,84,0.00,,,0.00,Rainwise IP-100,2013-07-19 10:41:00,
2013-07-19 06:46:00,75.2,70.0,29.14,SSW,202,5.0,6.0,84,0.00,,,0.00,Rainwise IP-100,2013-07-19 10:46:00,
2013-07-19 06:51:00,75.4,70.0,29.14,South,180,2.0,6.0,83,0.00,,,0.00,Rainwise IP-100,2013-07-19 10:51:00,
2013-07-19 06:56:00,75.5,70.0,29.14,SSW,202,3.0,5.0,84,0.00,,,0.00,Rainwise IP-100,2013-07-19 10:56:00,
2013-07-19 07:01:00,75.8,70.0,29.15,SSE,157,2.0,7.0,83,0.00,,,0.00,Rainwise IP-100,2013-07-19 11:01:00,
2013-07-19 07:06:00,75.9,70.0,29.15,South,180,6.0,6.0,83,0.00,,,0.00,Rainwise IP-100,2013-07-19 11:06:00,
2013-07-19 07:11:00,76.4,70.0,29.15,South,180,4.0,6.0,81,0.00,,,0.00,Rainwise IP-100,2013-07-19 11:11:00,
2013-07-19 07:16:00,76.7,70.0,29.15,SSE,157,7.0,7.0,81,0.00,,,0.00,Rainwise IP-100,2013-07-19 11:16:00,
2013-07-19 07:21:00,76.9,71.0,29.15,SSW,202,4.0,7.0,81,0.00,,,0.00,Rainwise IP-100,2013-07-19 11:21:00,
2013-07-19 07:26:00,77.3,71.0,29.15,SSE,157,6.0,9.0,81,0.00,,,0.00,Rainwise IP-100,2013-07-19 11:26:00,
2013-07-19 07:31:00,77.7,71.0,29.15,SE,135,3.0,7.0,80,0.00,,,0.00,Rainwise IP-100,2013-07-19 11:31:00,
2013-07-19 07:36:00,78.0,71.0,29.15,SSE,157,7.0,0.0,80,0.00,,,0.00,Rainwise IP-100,2013-07-19 11:36:00,
2013-07-19 07:41:00,78.2,71.0,29.15,South,180,5.0,9.0,80,0.00,,,0.00,Rainwise IP-100,2013-07-19 11:41:00,
2013-07-19 07:46:00,78.3,71.0,29.15,SE,135,4.0,8.0,79,0.00,,,0.00,Rainwise IP-100,2013-07-19 11:46:00,
2013-07-19 07:51:00,78.7,71.0,29.15,SSE,157,7.0,0.0,78,0.00,,,0.00,Rainwise IP-100,2013-07-19 11:51:00,
2013-07-19 07:56:00,78.8,71.0,29.16,SE,135,6.0,7.0,79,0.00,,,0.00,Rainwise IP-100,2013-07-19 11:56:00,
2013-07-19 08:01:00,78.8,71.0,29.15,SSE,157,6.0,9.0,79,0.00,,,0.00,Rainwise IP-100,2013-07-19 12:01:00,
2013-07-19 08:06:00,79.1,72.0,29.15,South,180,2.0,9.0,79,0.00,,,0.00,Rainwise IP-100,2013-07-19 12:06:00,
2013-07-19 08:11:00,79.3,72.0,29.15,SSE,157,4.0,7.0,79,0.00,,,0.00,Rainwise IP-100,2013-07-19 12:11:00,
2013-07-19 08:16:00,79.7,72.0,29.15,SE,135,6.0,9.0,79,0.00,,,0.00,Rainwise IP-100,2013-07-19 12:16:00,
2013-07-19 08:21:00,79.9,72.0,29.16,SE,135,6.0,9.0,78,0.00,,,0.00,Rainwise IP-100,2013-07-19 12:21:00,
2013-07-19 08:26:00,80.4,73.0,29.16,SE,135,4.0,7.0,78,0.00,,,0.00,Rainwise IP-100,2013-07-19 12:26:00,
2013-07-19 08:31:00,80.9,73.0,29.16,SSE,157,3.0,7.0,77,0.00,,,0.00,Rainwise IP-100,2013-07-19 12:31:00,
2013-07-19 08:36:00,81.4,73.0,29.16,SE,135,7.0,7.0,77,0.00,,,0.00,Rainwise IP-100,2013-07-19 12:36:00,
2013-07-19 08:41:00,81.5,72.0,29.16,SE,135,6.0,9.0,74,0.00,,,0.00,Rainwise IP-100,2013-07-19 12:41:00,
2013-07-19 08:46:00,81.6,72.0,29.16,South,180,3.0,9.0,74,0.00,,,0.00,Rainwise IP-100,2013-07-19 12:46:00,
2013-07-19 08:51:00,82.2,73.0,29.16,SSE,157,7.0,7.0,74,0.00,,,0.00,Rainwise IP-100,2013-07-19 12:51:00,
2013-07-19 08:56:00,82.5,73.0,29.16,SE,135,4.0,0.0,74,0.00,,,0.00,Rainwise IP-100,2013-07-19 12:56:00,
2013-07-19 09:01:00,82.9,73.0,29.16,South,180,4.0,9.0,72,0.00,,,0.00,Rainwise IP-100,2013-07-19 13:01:00,
2013-07-19 09:06:00,83.4,73.0,29.16,SSE,157,6.0,9.0,72,0.00,,,0.00,Rainwise IP-100,2013-07-19 13:06:00,
2013-07-19 09:11:00,83.6,73.0,29.16,South,180,3.0,9.0,71,0.00,,,0.00,Rainwise IP-100,2013-07-19 13:11:00,
2013-07-19 09:14:00,84.1,73.0,29.16,SSE,157,4.0,9.0,71,0.00,,,0.00,Rainwise IP-100,2013-07-19 13:14:00,
2013-07-19 09:16:00,84.0,74.0,29.16,South,180,2.0,9.0,72,0.00,,,0.00,Rainwise IP-100,2013-07-19 13:16:00,
2013-07-19 09:21:00,84.5,74.0,29.16,SSE,157,4.0,9.0,71,0.00,,,0.00,Rainwise IP-100,2013-07-19 13:21:00,
2013-07-19 09:26:00,84.9,73.0,29.16,South,180,4.0,4.0,68,0.00,,,0.00,Rainwise IP-100,2013-07-19 13:26:00,
2013-07-19 09:31:00,85.1,74.0,29.16,SW,225,2.0,7.0,70,0.00,,,0.00,Rainwise IP-100,2013-07-19 13:31:00,
2013-07-19 09:36:00,85.4,74.0,29.16,SE,135,7.0,8.0,69,0.00,,,0.00,Rainwise IP-100,2013-07-19 13:36:00,
2013-07-19 09:41:00,85.4,74.0,29.16,SSE,157,3.0,9.0,70,0.00,,,0.00,Rainwise IP-100,2013-07-19 13:41:00,
2013-07-19 09:46:00,85.5,73.0,29.16,SE,135,5.0,9.0,68,0.00,,,0.00,Rainwise IP-100,2013-07-19 13:46:00,
2013-07-19 09:51:00,85.8,73.0,29.15,SSE,157,5.0,5.0,68,0.00,,,0.00,Rainwise IP-100,2013-07-19 13:51:00,
2013-07-19 09:56:00,86.1,75.0,29.15,SSE,157,4.0,7.0,70,0.00,,,0.00,Rainwise IP-100,2013-07-19 13:56:00,
2013-07-19 10:01:00,85.8,73.0,29.15,SW,225,2.0,6.0,68,0.00,,,0.00,Rainwise IP-100,2013-07-19 14:01:00,
2013-07-19 10:06:00,86.3,73.0,29.15,South,180,1.0,7.0,67,0.00,,,0.00,Rainwise IP-100,2013-07-19 14:06:00,
2013-07-19 10:11:00,86.5,74.0,29.15,SW,225,0.0,1.0,67,0.00,,,0.00,Rainwise IP-100,2013-07-19 14:11:00,
2013-07-19 10:16:00,86.6,73.0,29.15,South,180,2.0,4.0,65,0.00,,,0.00,Rainwise IP-100,2013-07-19 14:16:00,
2013-07-19 10:19:00,86.9,74.0,29.15,SW,225,4.0,9.0,67,0.00,,,0.00,Rainwise IP-100,2013-07-19 14:19:00,
2013-07-19 10:23:00,86.8,73.0,29.15,SW,225,9.0,9.0,65,0.00,,,0.00,Rainwise IP-100,2013-07-19 14:23:00,
2013-07-19 10:28:00,86.9,74.0,29.15,SSW,202,3.0,0.0,66,0.00,,,0.00,Rainwise IP-100,2013-07-19 14:28:00,
2013-07-19 10:33:00,87.1,73.0,29.15,SSW,202,7.0,7.0,65,0.00,,,0.00,Rainwise IP-100,2013-07-19 14:33:00,
2013-07-19 10:38:00,87.3,73.0,29.15,SW,225,8.0,8.0,63,0.00,,,0.00,Rainwise IP-100,2013-07-19 14:38:00,
2013-07-19 10:43:00,87.4,72.0,29.15,South,180,6.0,6.0,62,0.00,,,0.00,Rainwise IP-100,2013-07-19 14:43:00,
2013-07-19 10:48:00,87.8,74.0,29.15,South,180,4.0,4.0,64,0.00,,,0.00,Rainwise IP-100,2013-07-19 14:48:00,
2013-07-19 10:53:00,88.1,73.0,29.15,ENE,67,2.0,4.0,61,0.00,,,0.00,Rainwise IP-100,2013-07-19 14:53:00,
2013-07-19 10:58:00,87.9,72.0,29.15,South,180,9.0,9.0,60,0.00,,,0.00,Rainwise IP-100,2013-07-19 14:58:00,
2013-07-19 11:03:00,87.9,72.0,29.14,South,180,7.0,7.0,59,0.00,,,0.00,Rainwise IP-100,2013-07-19 15:03:00,
2013-07-19 11:08:00,87.8,71.0,29.14,SW,225,6.0,6.0,59,0.00,,,0.00,Rainwise IP-100,2013-07-19 15:08:00,
2013-07-19 11:13:00,87.9,72.0,29.14,South,180,7.0,7.0,60,0.00,,,0.00,Rainwise IP-100,2013-07-19 15:13:00,
2013-07-19 11:18:00,87.9,71.0,29.14,South,180,7.0,7.0,58,0.00,,,0.00,Rainwise IP-100,2013-07-19 15:18:00,
2013-07-19 11:23:00,88.3,72.0,29.14,SW,225,6.0,6.0,59,0.00,,,0.00,Rainwise IP-100,2013-07-19 15:23:00,
2013-07-19 11:28:00,88.5,71.0,29.14,SSE,157,4.0,9.0,57,0.00,,,0.00,Rainwise IP-100,2013-07-19 15:28:00,
2013-07-19 11:33:00,88.4,73.0,29.14,SSW,202,2.0,5.0,61,0.00,,,0.00,Rainwise IP-100,2013-07-19 15:33:00,
2013-07-19 11:38:00,88.6,71.0,29.14,SW,225,1.0,8.0,56,0.00,,,0.00,Rainwise IP-100,2013-07-19 15:38:00,
2013-07-19 11:43:00,88.7,71.0,29.13,South,180,6.0,7.0,57,0.00,,,0.00,Rainwise IP-100,2013-07-19 15:43:00,
2013-07-19 11:48:00,88.7,70.0,29.14,South,180,4.0,4.0,54,0.00,,,0.00,Rainwise IP-100,2013-07-19 15:48:00,
2013-07-19 11:53:00,89.2,71.0,29.13,SW,225,1.0,4.0,56,0.00,,,0.00,Rainwise IP-100,2013-07-19 15:53:00,
2013-07-19 11:58:00,89.1,71.0,29.13,SW,225,2.0,5.0,55,0.00,,,0.00,Rainwise IP-100,2013-07-19 15:58:00,
2013-07-19 12:03:00,89.1,71.0,29.13,SSE,157,6.0,7.0,56,0.00,,,0.00,Rainwise IP-100,2013-07-19 16:03:00,
2013-07-19 12:08:00,89.2,70.0,29.13,SW,225,7.0,7.0,53,0.00,,,0.00,Rainwise IP-100,2013-07-19 16:08:00,
2013-07-19 12:13:00,89.2,70.0,29.13,SSW,202,8.0,8.0,54,0.00,,,0.00,Rainwise IP-100,2013-07-19 16:13:00,
2013-07-19 12:18:00,89.3,70.0,29.13,SSW,202,1.0,6.0,54,0.00,,,0.00,Rainwise IP-100,2013-07-19 16:18:00,
2013-07-19 12:23:00,89.7,71.0,29.13,SW,225,4.0,5.0,54,0.00,,,0.00,Rainwise IP-100,2013-07-19 16:23:00,
2013-07-19 12:28:00,89.7,71.0,29.13,South,180,4.0,4.0,54,0.00,,,0.00,Rainwise IP-100,2013-07-19 16:28:00,
2013-07-19 12:33:00,89.9,70.0,29.12,SSW,202,8.0,8.0,53,0.00,,,0.00,Rainwise IP-100,2013-07-19 16:33:00,
2013-07-19 12:38:00,89.9,69.0,29.12,SW,225,6.0,6.0,50,0.00,,,0.00,Rainwise IP-100,2013-07-19 16:38:00,
2013-07-19 12:43:00,89.3,70.0,29.12,WSW,247,2.0,3.0,53,0.00,,,0.00,Rainwise IP-100,2013-07-19 16:43:00,
2013-07-19 12:48:00,88.9,70.0,29.12,SSE,157,3.0,3.0,54,0.00,,,0.00,Rainwise IP-100,2013-07-19 16:48:00,
2013-07-19 12:53:00,89.4,71.0,29.12,South,180,6.0,6.0,54,0.00,,,0.00,Rainwise IP-100,2013-07-19 16:53:00,
2013-07-19 12:58:00,90.1,70.0,29.12,South,180,3.0,5.0,53,0.00,,,0.00,Rainwise IP-100,2013-07-19 16:58:00,
2013-07-19 13:03:00,90.3,71.0,29.11,SW,225,0.0,1.0,53,0.00,,,0.00,Rainwise IP-100,2013-07-19 17:03:00,
2013-07-19 13:08:00,90.3,71.0,29.11,SW,225,7.0,7.0,53,0.00,,,0.00,Rainwise IP-100,2013-07-19 17:08:00,
2013-07-19 13:13:00,90.6,68.0,29.11,SW,225,9.0,9.0,48,0.00,,,0.00,Rainwise IP-100,2013-07-19 17:13:00,
2013-07-19 13:18:00,90.5,69.0,29.10,WSW,247,4.0,7.0,49,0.00,,,0.00,Rainwise IP-100,2013-07-19 17:18:00,
2013-07-19 13:23:00,90.6,69.0,29.10,SSW,202,5.0,5.0,50,0.00,,,0.00,Rainwise IP-100,2013-07-19 17:23:00,
2013-07-19 13:28:00,90.5,69.0,29.10,SSW,202,7.0,7.0,49,0.00,,,0.00,Rainwise IP-100,2013-07-19 17:28:00,
2013-07-19 13:33:00,91.1,69.0,29.10,SSE,157,4.0,4.0,48,0.00,,,0.00,Rainwise IP-100,2013-07-19 17:33:00,
2013-07-19 13:38:00,91.3,69.0,29.09,SW,225,7.0,7.0,48,0.00,,,0.00,Rainwise IP-100,2013-07-19 17:38:00,
2013-07-19 13:43:00,90.9,69.0,29.09,WNW,292,0.0,7.0,48,0.00,,,0.00,Rainwise IP-100,2013-07-19 17:43:00,
2013-07-19 13:48:00,90.7,69.0,29.09,SSW,202,2.0,6.0,49,0.00,,,0.00,Rainwise IP-100,2013-07-19 17:48:00,
2013-07-19 13:53:00,90.9,69.0,29.09,South,180,4.0,4.0,48,0.00,,,0.00,Rainwise IP-100,2013-07-19 17:53:00,
2013-07-19 13:58:00,91.0,68.0,29.09,WSW,247,5.0,5.0,47,0.00,,,0.00,Rainwise IP-100,2013-07-19 17:58:00,
2013-07-19 14:03:00,90.9,69.0,29.09,SSW,202,3.0,6.0,48,0.00,,,0.00,Rainwise IP-100,2013-07-19 18:03:00,
2013-07-19 14:08:00,91.3,69.0,29.08,SSW,202,9.0,9.0,48,0.00,,,0.00,Rainwise IP-100,2013-07-19 18:08:00,
2013-07-19 14:13:00,91.5,68.0,29.08,SW,225,3.0,3.0,47,0.00,,,0.00,Rainwise IP-100,2013-07-19 18:13:00,
2013-07-19 14:18:00,91.5,69.0,29.08,SW,225,3.0,5.0,48,0.00,,,0.00,Rainwise IP-100,2013-07-19 18:18:00,
2013-07-19 14:23:00,91.7,69.0,29.08,SW,225,5.0,5.0,47,0.00,,,0.00,Rainwise IP-100,2013-07-19 18:23:00,
2013-07-19 14:28:00,91.6,68.0,29.08,WSW,247,3.0,3.0,46,0.00,,,0.00,Rainwise IP-100,2013-07-19 18:28:00,
2013-07-19 14:33:00,91.2,69.0,29.08,SW,225,2.0,2.0,48,0.00,,,0.00,Rainwise IP-100,2013-07-19 18:33:00,
2013-07-19 14:38:00,91.5,69.0,29.07,South,180,0.0,0.0,49,0.00,,,0.00,Rainwise IP-100,2013-07-19 18:38:00,
2013-07-19 14:43:00,92.1,69.0,29.07,South,180,6.0,6.0,48,0.00,,,0.00,Rainwise IP-100,2013-07-19 18:43:00,
2013-07-19 14:48:00,91.2,69.0,29.07,SSE,157,6.0,6.0,48,0.00,,,0.00,Rainwise IP-100,2013-07-19 18:48:00,
2013-07-19 14:53:00,91.3,69.0,29.07,SSW,202,3.0,3.0,48,0.00,,,0.00,Rainwise IP-100,2013-07-19 18:53:00,
2013-07-19 14:58:00,91.9,69.0,29.07,SW,225,5.0,5.0,47,0.00,,,0.00,Rainwise IP-100,2013-07-19 18:58:00,
2013-07-19 15:03:00,91.2,67.0,29.07,SW,225,5.0,6.0,46,0.00,,,0.00,Rainwise IP-100,2013-07-19 19:03:00,
2013-07-19 15:08:00,91.6,68.0,29.06,South,180,5.0,0.0,47,0.00,,,0.00,Rainwise IP-100,2013-07-19 19:08:00,
2013-07-19 15:14:00,91.6,69.0,29.06,South,180,6.0,6.0,48,0.00,,,0.00,Rainwise IP-100,2013-07-19 19:14:00,
2013-07-19 15:19:00,91.7,69.0,29.05,SW,225,3.0,0.0,48,0.00,,,0.00,Rainwise IP-100,2013-07-19 19:19:00,
2013-07-19 15:24:00,91.4,68.0,29.05,SW,225,2.0,2.0,47,0.00,,,0.00,Rainwise IP-100,2013-07-19 19:24:00,
2013-07-19 15:29:00,91.6,68.0,29.05,SW,225,0.0,2.0,46,0.00,,,0.00,Rainwise IP-100,2013-07-19 19:29:00,
2013-07-19 15:34:00,91.7,71.0,29.05,South,180,6.0,0.0,51,0.00,,,0.00,Rainwise IP-100,2013-07-19 19:34:00,
2013-07-19 15:39:00,91.6,68.0,29.05,WSW,247,5.0,6.0,47,0.00,,,0.00,Rainwise IP-100,2013-07-19 19:39:00,
2013-07-19 15:44:00,91.7,70.0,29.05,SW,225,7.0,9.0,49,0.00,,,0.00,Rainwise IP-100,2013-07-19 19:44:00,
2013-07-19 15:49:00,91.9,70.0,29.05,West,270,3.0,0.0,49,0.00,,,0.00,Rainwise IP-100,2013-07-19 19:49:00,
2013-07-19 15:54:00,91.9,70.0,29.05,SW,225,6.0,6.0,49,0.00,,,0.00,Rainwise IP-100,2013-07-19 19:54:00,
2013-07-19 15:59:00,91.9,69.0,29.05,South,180,2.0,4.0,48,0.00,,,0.00,Rainwise IP-100,2013-07-19 19:59:00,
2013-07-19 16:04:00,91.3,69.0,29.05,SW,225,4.0,4.0,49,0.00,,,0.00,Rainwise IP-100,2013-07-19 20:04:00,
2013-07-19 16:09:00,90.9,69.0,29.05,WSW,247,7.0,7.0,49,0.00,,,0.00,Rainwise IP-100,2013-07-19 20:09:00,
2013-07-19 16:14:00,90.8,69.0,29.05,SW,225,4.0,4.0,50,0.00,,,0.00,Rainwise IP-100,2013-07-19 20:14:00,
2013-07-19 16:19:00,90.8,69.0,29.05,West,270,6.0,6.0,50,0.00,,,0.00,Rainwise IP-100,2013-07-19 20:19:00,
2013-07-19 16:24:00,90.9,69.0,29.05,West,270,8.0,9.0,49,0.00,,,0.00,Rainwise IP-100,2013-07-19 20:24:00,
2013-07-19 16:29:00,90.9,69.0,29.05,WSW,247,4.0,4.0,49,0.00,,,0.00,Rainwise IP-100,2013-07-19 20:29:00,
2013-07-19 16:34:00,91.2,70.0,29.05,SW,225,2.0,9.0,51,0.00,,,0.00,Rainwise IP-100,2013-07-19 20:34:00,
2013-07-19 16:39:00,91.2,68.0,29.05,SW,225,6.0,6.0,47,0.00,,,0.00,Rainwise IP-100,2013-07-19 20:39:00,
2013-07-19 16:44:00,91.2,69.0,29.05,SW,225,4.0,4.0,48,0.00,,,0.00,Rainwise IP-100,2013-07-19 20:44:00,
2013-07-19 16:49:00,91.6,69.0,29.04,SW,225,3.0,9.0,49,0.00,,,0.00,Rainwise IP-100,2013-07-19 20:49:00,
2013-07-19 16:54:00,91.5,68.0,29.04,SSW,202,7.0,7.0,46,0.00,,,0.00,Rainwise IP-100,2013-07-19 20:54:00,
2013-07-19 16:59:00,91.7,70.0,29.04,West,270,3.0,3.0,50,0.00,,,0.00,Rainwise IP-100,2013-07-19 20:59:00,
2013-07-19 17:04:00,91.4,69.0,29.04,SW,225,5.0,5.0,48,0.00,,,0.00,Rainwise IP-100,2013-07-19 21:04:00,
2013-07-19 17:09:00,91.5,69.0,29.03,South,180,4.0,8.0,49,0.00,,,0.00,Rainwise IP-100,2013-07-19 21:09:00,
2013-07-19 17:14:00,91.3,69.0,29.03,SW,225,9.0,9.0,48,0.00,,,0.00,Rainwise IP-100,2013-07-19 21:14:00,
2013-07-19 17:19:00,91.3,69.0,29.03,SW,225,6.0,6.0,48,0.00,,,0.00,Rainwise IP-100,2013-07-19 21:19:00,
2013-07-19 17:24:00,91.5,69.0,29.03,SW,225,2.0,9.0,48,0.00,,,0.00,Rainwise IP-100,2013-07-19 21:24:00,
2013-07-19 17:29:00,91.9,69.0,29.03,SSW,202,7.0,7.0,48,0.00,,,0.00,Rainwise IP-100,2013-07-19 21:29:00,
2013-07-19 17:34:00,91.9,69.0,29.02,SE,135,4.0,9.0,48,0.00,,,0.00,Rainwise IP-100,2013-07-19 21:34:00,
2013-07-19 17:39:00,91.6,69.0,29.02,SW,225,2.0,2.0,49,0.00,,,0.00,Rainwise IP-100,2013-07-19 21:39:00,
2013-07-19 17:44:00,91.3,69.0,29.02,SSW,202,6.0,8.0,49,0.00,,,0.00,Rainwise IP-100,2013-07-19 21:44:00,
2013-07-19 17:49:00,91.4,69.0,29.02,WSW,247,1.0,0.0,49,0.00,,,0.00,Rainwise IP-100,2013-07-19 21:49:00,
2013-07-19 17:54:00,90.9,69.0,29.03,SW,225,7.0,7.0,49,0.00,,,0.00,Rainwise IP-100,2013-07-19 21:54:00,
2013-07-19 17:59:00,91.0,69.0,29.02,SW,225,4.0,4.0,49,0.00,,,0.00,Rainwise IP-100,2013-07-19 21:59:00,
2013-07-19 18:04:00,90.9,70.0,29.02,West,270,9.0,9.0,50,0.00,,,0.00,Rainwise IP-100,2013-07-19 22:04:00,
2013-07-19 18:09:00,90.8,69.0,29.02,WSW,247,7.0,7.0,50,0.00,,,0.00,Rainwise IP-100,2013-07-19 22:09:00,
2013-07-19 18:14:00,90.7,71.0,29.02,SW,225,4.0,8.0,53,0.00,,,0.00,Rainwise IP-100,2013-07-19 22:14:00,
2013-07-19 18:19:00,90.6,71.0,29.02,SW,225,2.0,6.0,54,0.00,,,0.00,Rainwise IP-100,2013-07-19 22:19:00,
2013-07-19 18:24:00,90.6,71.0,29.02,West,270,6.0,7.0,53,0.00,,,0.00,Rainwise IP-100,2013-07-19 22:24:00,
2013-07-19 18:29:00,90.5,71.0,29.02,SW,225,2.0,7.0,54,0.00,,,0.00,Rainwise IP-100,2013-07-19 22:29:00,
2013-07-19 18:34:00,90.3,71.0,29.02,SW,225,4.0,7.0,53,0.00,,,0.00,Rainwise IP-100,2013-07-19 22:34:00,
2013-07-19 18:39:00,90.5,70.0,29.01,South,180,7.0,7.0,51,0.00,,,0.00,Rainwise IP-100,2013-07-19 22:39:00,
2013-07-19 18:44:00,90.5,71.0,29.01,SW,225,2.0,8.0,54,0.00,,,0.00,Rainwise IP-100,2013-07-19 22:44:00,
2013-07-19 18:49:00,90.4,71.0,29.01,SW,225,3.0,7.0,54,0.00,,,0.00,Rainwise IP-100,2013-07-19 22:49:00,
2013-07-19 18:54:00,90.4,71.0,29.02,SW,225,5.0,7.0,54,0.00,,,0.00,Rainwise IP-100,2013-07-19 22:54:00,
2013-07-19 18:59:00,89.7,69.0,29.02,SW,225,5.0,5.0,51,0.00,,,0.00,Rainwise IP-100,2013-07-19 22:59:00,
2013-07-19 19:04:00,89.1,69.0,29.02,WSW,247,3.0,3.0,53,0.00,,,0.00,Rainwise IP-100,2013-07-19 23:04:00,
2013-07-19 19:09:00,88.8,70.0,29.03,South,180,2.0,8.0,55,0.00,,,0.00,Rainwise IP-100,2013-07-19 23:09:00,
2013-07-19 19:14:00,88.8,70.0,29.03,SW,225,6.0,9.0,54,0.00,,,0.00,Rainwise IP-100,2013-07-19 23:14:00,
2013-07-19 19:19:00,88.9,68.0,29.04,SW,225,5.0,5.0,51,0.00,,,0.00,Rainwise IP-100,2013-07-19 23:19:00,
2013-07-19 19:24:00,88.7,70.0,29.04,SW,225,2.0,9.0,55,0.00,,,0.00,Rainwise IP-100,2013-07-19 23:24:00,
2013-07-19 19:29:00,88.3,69.0,29.04,WSW,247,9.0,9.0,54,0.00,,,0.00,Rainwise IP-100,2013-07-19 23:29:00,
2013-07-19 19:34:00,88.4,68.0,29.05,SSW,202,4.0,4.0,51,0.00,,,0.00,Rainwise IP-100,2013-07-19 23:34:00,
2013-07-19 19:39:00,87.9,69.0,29.05,WSW,247,4.0,4.0,53,0.00,,,0.00,Rainwise IP-100,2013-07-19 23:39:00,
2013-07-19 19:44:00,87.7,68.0,29.06,SW,225,2.0,2.0,53,0.00,,,0.00,Rainwise IP-100,2013-07-19 23:44:00,
2013-07-19 19:49:00,87.4,69.0,29.06,WSW,247,6.0,9.0,54,0.00,,,0.00,Rainwise IP-100,2013-07-19 23:49:00,
2013-07-19 19:54:00,87.0,68.0,29.07,SSW,202,3.0,7.0,54,0.00,,,0.00,Rainwise IP-100,2013-07-19 23:54:00,
2013-07-19 19:59:00,86.9,68.0,29.07,WSW,247,4.0,9.0,54,0.00,,,0.00,Rainwise IP-100,2013-07-19 23:59:00,
2013-07-19 20:04:00,86.8,68.0,29.07,SSW,202,4.0,9.0,55,0.00,,,0.00,Rainwise IP-100,2013-07-20 00:04:00,
2013-07-19 20:09:00,86.6,69.0,29.07,SSW,202,3.0,7.0,56,0.00,,,0.00,Rainwise IP-100,2013-07-20 00:09:00,
2013-07-19 20:14:00,86.3,69.0,29.06,SW,225,4.0,7.0,56,0.00,,,0.00,Rainwise IP-100,2013-07-20 00:14:00,
2013-07-19 20:19:00,86.0,69.0,29.06,South,180,1.0,5.0,57,0.00,,,0.00,Rainwise IP-100,2013-07-20 00:19:00,
2013-07-19 20:24:00,85.8,68.0,29.05,SW,225,2.0,6.0,56,0.00,,,0.00,Rainwise IP-100,2013-07-20 00:24:00,
2013-07-19 20:29:00,85.6,68.0,29.05,SW,225,3.0,6.0,57,0.00,,,0.00,Rainwise IP-100,2013-07-20 00:29:00,
2013-07-19 20:34:00,85.2,69.0,29.05,SSW,202,1.0,5.0,58,0.00,,,0.00,Rainwise IP-100,2013-07-20 00:34:00,
2013-07-19 20:39:00,84.7,69.0,29.05,SSW,202,1.0,6.0,59,0.00,,,0.00,Rainwise IP-100,2013-07-20 00:39:00,
2013-07-19 20:44:00,84.3,69.0,29.04,SSE,157,1.0,2.0,60,0.00,,,0.00,Rainwise IP-100,2013-07-20 00:44:00,
2013-07-19 20:49:00,83.8,69.0,29.05,West,270,2.0,2.0,61,0.00,,,0.00,Rainwise IP-100,2013-07-20 00:49:00,
2013-07-19 20:54:00,83.2,70.0,29.05,NNW,337,2.0,2.0,64,0.00,,,0.00,Rainwise IP-100,2013-07-20 00:54:00,
2013-07-19 20:59:00,82.4,69.0,29.06,NNW,337,9.0,9.0,63,0.00,,,0.00,Rainwise IP-100,2013-07-20 00:59:00,
2013-07-19 21:04:00,79.7,66.0,29.06,North,360,4.0,6.0,63,0.00,,,0.00,Rainwise IP-100,2013-07-20 01:04:00,
2013-07-19 21:09:00,78.5,66.0,29.06,NW,315,7.0,0.0,65,0.00,,,0.00,Rainwise IP-100,2013-07-20 01:09:00,
2013-07-19 21:14:00,77.9,66.0,29.05,NNW,337,4.0,4.0,67,0.00,,,0.00,Rainwise IP-100,2013-07-20 01:14:00,
2013-07-19 21:19:00,77.5,66.0,29.06,West,270,6.0,9.0,67,0.00,,,0.00,Rainwise IP-100,2013-07-20 01:19:00,
2013-07-19 21:24:00,77.4,65.0,29.05,NNW,337,6.0,9.0,66,0.00,,,0.00,Rainwise IP-100,2013-07-20 01:24:00,
2013-07-19 21:29:00,77.2,66.0,29.06,West,270,7.0,0.0,67,0.00,,,0.00,Rainwise IP-100,2013-07-20 01:29:00,
2013-07-19 21:34:00,77.1,65.0,29.05,WNW,292,3.0,9.0,67,0.00,,,0.00,Rainwise IP-100,2013-07-20 01:34:00,
2013-07-19 21:39:00,76.9,65.0,29.05,NW,315,3.0,9.0,66,0.00,,,0.00,Rainwise IP-100,2013-07-20 01:39:00,
2013-07-19 21:44:00,76.7,64.0,29.05,NW,315,5.0,0.0,66,0.00,,,0.00,Rainwise IP-100,2013-07-20 01:44:00,
2013-07-19 21:49:00,76.7,65.0,29.05,WSW,247,4.0,9.0,67,0.00,,,0.00,Rainwise IP-100,2013-07-20 01:49:00,
2013-07-19 21:54:00,76.6,65.0,29.05,NNW,337,2.0,7.0,67,0.00,,,0.00,Rainwise IP-100,2013-07-20 01:54:00,
2013-07-19 21:59:00,76.6,65.0,29.05,WNW,292,4.0,4.0,67,0.00,,,0.00,Rainwise IP-100,2013-07-20 01:59:00,
2013-07-19 22:04:00,76.6,65.0,29.05,NW,315,5.0,5.0,68,0.00,,,0.00,Rainwise IP-100,2013-07-20 02:04:00,
2013-07-19 22:09:00,76.7,66.0,29.04,West,270,7.0,7.0,69,0.00,,,0.00,Rainwise IP-100,2013-07-20 02:09:00,
2013-07-19 22:14:00,76.5,66.0,29.04,West,270,6.0,6.0,71,0.00,,,0.00,Rainwise IP-100,2013-07-20 02:14:00,
2013-07-19 22:19:00,76.4,66.0,29.03,NW,315,3.0,3.0,72,0.00,,,0.00,Rainwise IP-100,2013-07-20 02:19:00,
2013-07-19 22:24:00,76.4,66.0,29.04,WSW,247,5.0,5.0,72,0.00,,,0.00,Rainwise IP-100,2013-07-20 02:24:00,
2013-07-19 22:29:00,76.5,67.0,29.04,West,270,9.0,9.0,73,0.00,,,0.00,Rainwise IP-100,2013-07-20 02:29:00,
2013-07-19 22:34:00,76.3,66.0,29.04,WSW,247,0.0,3.0,73,0.00,,,0.00,Rainwise IP-100,2013-07-20 02:34:00,
2013-07-19 22:39:00,75.7,68.0,29.05,WSW,247,5.0,5.0,77,0.00,,,0.00,Rainwise IP-100,2013-07-20 02:39:00,
2013-07-19 22:44:00,74.5,69.0,29.04,SW,225,2.0,2.0,82,0.00,,,0.00,Rainwise IP-100,2013-07-20 02:44:00,
2013-07-19 22:49:00,73.9,68.0,29.04,SW,225,3.0,0.0,81,0.00,,,0.00,Rainwise IP-100,2013-07-20 02:49:00,
2013-07-19 22:54:00,73.9,68.0,29.04,SW,225,2.0,0.0,82,0.00,,,0.00,Rainwise IP-100,2013-07-20 02:54:00,
2013-07-19 22:59:00,73.7,68.0,29.04,SW,225,4.0,7.0,82,0.00,,,0.00,Rainwise IP-100,2013-07-20 02:59:00,
2013-07-19 23:04:00,73.7,68.0,29.04,West,270,7.0,0.0,82,0.00,,,0.00,Rainwise IP-100,2013-07-20 03:04:00,
2013-07-19 23:09:00,73.7,68.0,29.04,SW,225,4.0,4.0,82,0.00,,,0.00,Rainwise IP-100,2013-07-20 03:09:00,
2013-07-19 23:14:00,73.8,67.0,29.04,West,270,2.0,9.0,81,0.00,,,0.00,Rainwise IP-100,2013-07-20 03:14:00,
2013-07-19 23:19:00,74.0,67.0,29.04,SW,225,4.0,4.0,80,0.00,,,0.00,Rainwise IP-100,2013-07-20 03:19:00,
2013-07-19 23:24:00,74.1,67.0,29.05,SSW,202,3.0,3.0,79,0.00,,,0.00,Rainwise IP-100,2013-07-20 03:24:00,
2013-07-19 23:29:00,74.3,67.0,29.05,WNW,292,6.0,6.0,79,0.00,,,0.00,Rainwise IP-100,2013-07-20 03:29:00,
2013-07-19 23:34:00,74.2,67.0,29.08,SW,225,7.0,7.0,79,0.00,,,0.00,Rainwise IP-100,2013-07-20 03:34:00,
2013-07-19 23:39:00,72.5,68.0,29.07,West,270,6.0,8.0,87,0.18,,,0.03,Rainwise IP-100,2013-07-20 03:39:00,
2013-07-19 23:44:00,71.4,69.0,29.05,NW,315,8.0,9.0,92,0.30,,,0.05,Rainwise IP-100,2013-07-20 03:44:00,
2013-07-19 23:49:00,70.9,69.0,29.05,WNW,292,0.0,0.0,93,0.48,,,0.11,Rainwise IP-100,2013-07-20 03:49:00,
2013-07-19 23:54:00,70.9,69.0,29.05,WNW,292,6.0,6.0,94,0.36,,,0.11,Rainwise IP-100,2013-07-20 03:54:00,
2013-07-19 23:59:00,70.9,69.0,29.07,West,270,0.0,3.0,94,0.00,,,0.11,Rainwise IP-100,2013-07-20 03:59:00,